Simultaneous Nadir Overpasses (SNOs) Predictions

Prediction of SNOs between GOES-16 and NOAA-19 Satellite Orbit:

Table of predicted SNOs for the next 14.0 days since TLE Epoch: 7/6/2024
Index Date Time (GOES-16) GOES-16 Lat,Lon NOAA-19 Lat,Lon Distance(km) Time Diff (sec)
1 07/06/2024 14:17:37 0.03, -75.20 0.03, -75.19 0.83 80
2 07/07/2024 14:07:59 0.03, -75.20 -0.65, -72.20 342.59 80
3 07/10/2024 02:24:46 -0.02, -75.22 -0.36, -76.84 183.86 80
4 07/11/2024 02:15:07 -0.01, -75.23 0.31, -73.85 158.76 80
5 07/13/2024 14:31:52 0.01, -75.27 0.73, -78.47 364.98 80
6 07/14/2024 14:19:34 0.01, -75.29 0.04, -75.48 21.82 80
7 07/15/2024 14:09:54 0.02, -75.30 -0.60, -72.48 321.66 80
8 07/18/2024 02:26:41 -0.02, -75.34 -0.45, -77.11 202.54 80
9 07/19/2024 02:14:23 -0.02, -75.36 0.24, -74.12 140.80 80
